TimeCST,TemperatureF,Dew PointF,Humidity,Sea Level PressureIn,VisibilityMPH,Wind Direction,Wind SpeedMPH,Gust SpeedMPH,PrecipitationIn,Events,Conditions,WindDirDegrees,DateUTC
12:53 AM,34.0,28.9,82,30.22,9.0,SE,3.5,-,0.00,,Overcast,140,2012-11-04 05:53:00
1:53 AM,35.1,30.0,82,30.23,9.0,SE,4.6,-,N/A,,Scattered Clouds,140,2012-11-04 06:53:00
1:53 AM,33.1,28.9,85,30.22,9.0,SSE,4.6,-,N/A,,Partly Cloudy,150,2012-11-04 07:53:00
2:53 AM,34.0,30.0,85,30.23,7.0,Calm,Calm,-,N/A,,Scattered Clouds,0,2012-11-04 08:53:00
3:53 AM,37.0,30.9,79,30.22,7.0,Calm,Calm,-,N/A,,Mostly Cloudy,0,2012-11-04 09:53:00
4:53 AM,37.0,33.1,86,30.24,7.0,SSE,3.5,-,N/A,,Overcast,160,2012-11-04 10:53:00
5:53 AM,37.9,33.1,83,30.23,9.0,South,4.6,-,0.00,Rain,Light Rain,170,2012-11-04 11:53:00
6:53 AM,37.0,33.1,86,30.24,8.0,SSE,4.6,-,0.00,,Overcast,160,2012-11-04 12:53:00
7:53 AM,39.0,34.0,82,30.25,9.0,South,4.6,-,N/A,,Overcast,170,2012-11-04 13:53:00
8:53 AM,39.9,35.1,83,30.25,9.0,South,8.1,-,N/A,,Overcast,180,2012-11-04 14:53:00
9:53 AM,43.0,36.0,76,30.25,10.0,South,6.9,-,N/A,,Overcast,180,2012-11-04 15:53:00
10:53 AM,45.0,36.0,71,30.24,10.0,South,8.1,-,N/A,,Overcast,190,2012-11-04 16:53:00
11:53 AM,46.9,36.0,66,30.21,10.0,South,9.2,-,N/A,,Overcast,170,2012-11-04 17:53:00
12:53 PM,46.9,37.0,68,30.18,10.0,SSE,9.2,-,0.00,Rain,Light Rain,160,2012-11-04 18:53:00
1:53 PM,46.9,37.0,68,30.17,10.0,SSE,6.9,-,0.00,,Overcast,150,2012-11-04 19:53:00
2:53 PM,46.9,37.0,68,30.16,10.0,SSE,9.2,-,N/A,,Overcast,150,2012-11-04 20:53:00
3:53 PM,46.0,37.0,71,30.15,10.0,SSE,10.4,-,0.00,Rain,Light Rain,150,2012-11-04 21:53:00
4:53 PM,44.1,37.0,76,30.14,10.0,ESE,8.1,-,0.00,,Overcast,120,2012-11-04 22:53:00
5:53 PM,43.0,37.0,80,30.14,10.0,SE,8.1,-,0.00,,Mostly Cloudy,130,2012-11-04 23:53:00
6:53 PM,43.0,36.0,76,30.16,10.0,SSE,6.9,-,N/A,,Overcast,150,2012-11-05 00:53:00
7:53 PM,43.0,36.0,76,30.15,9.0,SSE,8.1,-,N/A,,Overcast,160,2012-11-05 01:53:00
8:53 PM,42.1,35.1,76,30.15,8.0,SE,8.1,-,0.00,Rain,Light Rain,140,2012-11-05 02:53:00
9:53 PM,41.0,37.0,86,30.14,6.0,ESE,8.1,-,0.00,Rain,Light Rain,110,2012-11-05 03:53:00
10:53 PM,41.0,37.4,87,30.12,5.0,ESE,9.2,-,N/A,Rain,Light Rain,120,2012-11-05 04:53:00